Location: Aldenham
(51.6667°N, 0.3500°W)
Time: 05:35:17
(UTC+00:00)

Cosmos 1340 Rocket - Pass Details

Date: 18 November 2025
Orbit: 486 x 519 km, 81.2° (Epoch: 10 December)

Event Time Altitude Azimuth Distance (km) Brightness Sun altitude
Rises 16:49:50 0° 212° (SSW) 2,637 7.3 -6.7°
Reaches altitude 10° 16:52:06 10° 222° (SW) 1,752 6.6 -7.0°
Maximum altitude 16:55:41 36° 290° (WNW) 839 4.3 -7.6°
Drops below altitude 10° 16:59:15 10° 358° (N) 1,752 5.2 -8.1°
Sets 17:01:31 0° 7° (N) 2,638 6.0 -8.4°
